TimeEST,TemperatureF,Dew PointF,Humidity,Sea Level PressureIn,VisibilityMPH,Wind Direction,Wind SpeedMPH,Gust SpeedMPH,PrecipitationIn,Events,Conditions,WindDirDegrees,DateUTC
12:53 AM,46.0,33.1,61,30.31,10.0,North,5.8,-,N/A,,Scattered Clouds,360,2012-02-03 05:53:00
1:53 AM,44.1,34.0,68,30.31,10.0,Calm,Calm,-,N/A,,Scattered Clouds,0,2012-02-03 06:53:00
2:53 AM,44.1,35.1,71,30.33,10.0,Calm,Calm,-,N/A,,Mostly Cloudy,0,2012-02-03 07:53:00
3:53 AM,39.9,35.1,83,30.34,10.0,Calm,Calm,-,N/A,,Mostly Cloudy,0,2012-02-03 08:53:00
4:53 AM,39.0,34.0,82,30.33,10.0,Calm,Calm,-,N/A,,Mostly Cloudy,0,2012-02-03 09:53:00
5:53 AM,37.0,34.0,89,30.34,10.0,Calm,Calm,-,N/A,,Scattered Clouds,0,2012-02-03 10:53:00
6:53 AM,37.0,33.1,86,30.36,10.0,Calm,Calm,-,N/A,,Scattered Clouds,0,2012-02-03 11:53:00
7:53 AM,36.0,33.1,89,30.38,10.0,SSW,3.5,-,N/A,,Scattered Clouds,200,2012-02-03 12:53:00
8:53 AM,39.0,34.0,82,30.40,10.0,Calm,Calm,-,N/A,,Mostly Cloudy,0,2012-02-03 13:53:00
9:53 AM,46.9,37.0,68,30.40,10.0,NE,4.6,-,N/A,,Mostly Cloudy,50,2012-02-03 14:53:00
10:53 AM,51.1,36.0,56,30.39,10.0,Calm,Calm,-,N/A,,Mostly Cloudy,0,2012-02-03 15:53:00
11:53 AM,53.1,36.0,52,30.38,10.0,SW,3.5,-,N/A,,Mostly Cloudy,230,2012-02-03 16:53:00
12:53 PM,59.0,36.0,42,30.35,10.0,Calm,Calm,-,N/A,,Mostly Cloudy,0,2012-02-03 17:53:00
1:53 PM,62.1,30.9,31,30.33,10.0,South,9.2,-,N/A,,Mostly Cloudy,170,2012-02-03 18:53:00
2:53 PM,62.1,30.9,31,30.32,10.0,SSE,6.9,-,N/A,,Mostly Cloudy,160,2012-02-03 19:53:00
3:53 PM,62.1,30.9,31,30.30,10.0,SSE,6.9,-,N/A,,Mostly Cloudy,150,2012-02-03 20:53:00
4:53 PM,61.0,32.0,34,30.31,10.0,SSE,3.5,-,N/A,,Mostly Cloudy,160,2012-02-03 21:53:00
5:53 PM,60.1,33.1,36,30.31,10.0,SSE,6.9,-,N/A,,Mostly Cloudy,150,2012-02-03 22:53:00
6:53 PM,59.0,33.1,38,30.32,10.0,SSE,3.5,-,N/A,,Mostly Cloudy,160,2012-02-03 23:53:00
7:53 PM,59.0,34.0,39,30.32,10.0,SSE,5.8,-,N/A,,Overcast,160,2012-02-04 00:53:00
8:53 PM,57.0,35.1,44,30.32,10.0,South,4.6,-,N/A,,Overcast,170,2012-02-04 01:53:00
9:53 PM,57.0,35.1,44,30.30,10.0,South,4.6,-,N/A,,Overcast,190,2012-02-04 02:53:00
10:53 PM,55.9,35.1,45,30.28,10.0,South,3.5,-,N/A,,Overcast,190,2012-02-04 03:53:00
11:53 PM,54.0,37.9,55,30.28,10.0,South,4.6,-,N/A,,Overcast,180,2012-02-04 04:53:00